SL-16 DEB

Satellite information

Favourite Embed

Satellite Type and Status

DEBRISIN ORBIT

Key statistics

Satellite SL-16 DEB at a glance.

Uptime

11790

Days in orbit

Revolutions

≈ 14.4

Per day

Orbit

LEO

Low Earth Orbit

Inclination

71.0

Latest

Satellite identification and parameters

Extended collection of information and parameters for SL-16 DEB.

Object identification

Identified? True

Debris? True

Object name: SL-16 DEB

International designator: 1993-016BR

Object number (NORAD): 39891

Object ID (CCSDS): 39891

Country: COMMONWEALTH OF INDEPENDENT STATES (CIS)

Current information (Y/N): Y

RCS size: SMALL

Orbital parameters

Period: 99.814 minutes

Inclination: 70.9972 deg

SMA: 7127.794 km

Apoapsis: 756.183 km

Periapsis: 743.135 km

RAAN: 266.5097 deg

Eccentricy: 0.0009153

Argument of periapsis: 20.7362 deg

Mean anomaly: 339.4145 deg

Mean motion: 14.4268004 rev/day

Mean motion (dot): 0.00001235 rev/day2

B* drag term: 0.00038605 1/REarth

Two-line elements (TLE)

Creation date: July 4, 2025, 6:39 p.m.

Reference frame: TEME

Reference center: EARTH

Epoch: July 4, 2025, 1:42 p.m. UTC

TLE line 0: 0 SL-16 DEB

TLE line 1: 1 39891U 93016BR 25185.57146016 .00001235 00000-0 38605-3 0 9996

TLE line 2: 2 39891 70.9972 266.5097 0009153 20.7362 339.4145 14.42680040580066

Live tracking on map

Real-time ground track for satellite SL-16 DEB.

In-orbit conjunctions

A list of the most updated potential collisions computed for object SL-16 DEB.

Target Orbit TCA Probability of collision Miss distance Type
SL-8 R/B LEO 2025-05-04 09:24:26 0.0004761029 170.0 (m) ROCKET BODY
COSMOS 2251 DEB LEO 2024-09-25 12:02:03 0.0001624051 836.0 (m) DEBRIS

Associated space launch

Second generation ELING satellite

SL-16 DEB was lifted into orbit during the mission ‘Zenit-2 | Tselina-2 13’, on board a Zenit-2 space rocket.

The launch took place on March 26, 1993, 2:21 a.m. from 45/1.

For more information about the launch, click the button.

Launch to space Zenit-2 | Tselina-2 13
Zenit-2 | Tselina-2 13

Agency: N/A

Status: Launch Successful

Launch date: March 26, 1993, 2:21 a.m. UTC

Rocket: Zenit-2

Launch pad: 45/1

Location: Baikonur Cosmodrome, Republic of Kazakhstan

...

Latest news about this satellite

There are no fresh news available about this satellite. Check back as we update our databases every day.


Newsletter sign-up

Weekly statistics, charts and insights to help you stay on top of the space industry.